HIBER-3

导读 | 豆包AI

HIBER-3是荷兰企业Hiber开发的第三代商业卫星,于2021年3月22日发射升空,属于低轨物联网卫星星座的组成部分。该卫星旨在为全球偏远地区提供低成本的物联网连接服务,可服务于物流追踪、环境监测、资产监管等领域,助力物联网覆盖范围延伸至网络基础设施薄弱区域,推动全球万物互联的落地进程。

基本信息
目录编号:
47942
目录名称:
HIBER-3
国际标识:
2021-022L
轨道中心:
EARTH
卫星名称:
HIBER-3
卫星全名:
--
卫星状态:
已陨落 最后检测时间 2025-02-04
发射日期:
2021-03-22 UTC
国别 :
荷兰 (NL)
星等 :
--
轨道信息
数据来源 国际轨道数据
星历时间: 2025-01-30T05:38:13+0800
轨道信息已过期430天
半长轴: 6567.878km
偏心率: 0.0006523
轨道倾角: 97.403°
近地点辐角 138.689°
升交点赤经 304.218°
平近点角 221.490°
近地点: 185.458km
远地点: 194.028km
周期: 88.287分钟
每日圈数: 16.310423
详细信息
使用方式:
暂无